TimeCST,TemperatureF,Dew PointF,Humidity,Sea Level PressureIn,VisibilityMPH,Wind Direction,Wind SpeedMPH,Gust SpeedMPH,PrecipitationIn,Events,Conditions,WindDirDegrees,DateUTC
12:16 AM,10.4,6.8,85,29.99,3.0,SSW,12.7,-,N/A,Snow,Light Snow,210,2012-12-29 06:16:00
12:35 AM,10.4,8.6,92,29.98,2.5,SSW,11.5,-,N/A,Snow,Light Snow,200,2012-12-29 06:35:00
12:55 AM,10.4,8.6,92,29.98,2.5,SSW,13.8,-,N/A,Snow,Light Snow,210,2012-12-29 06:55:00
1:16 AM,10.4,8.6,92,29.97,4.0,SSW,10.4,-,N/A,Snow,Light Snow,210,2012-12-29 07:16:00
1:35 AM,10.4,6.8,85,29.98,5.0,SSW,11.5,-,N/A,Snow,Light Snow,210,2012-12-29 07:35:00
1:55 AM,8.6,6.8,92,29.97,4.0,SSW,11.5,-,N/A,Snow,Light Snow,200,2012-12-29 07:55:00
2:16 AM,8.6,6.8,92,29.98,4.0,SSW,10.4,-,N/A,Snow,Light Snow,210,2012-12-29 08:16:00
2:35 AM,8.6,6.8,92,29.98,3.0,SSW,11.5,-,N/A,Snow,Light Snow,210,2012-12-29 08:35:00
2:55 AM,8.6,6.8,92,29.98,2.5,SSW,10.4,-,N/A,Snow,Light Snow,210,2012-12-29 08:55:00
3:16 AM,8.6,6.8,92,29.97,5.0,SSW,10.4,-,N/A,Snow,Light Snow,210,2012-12-29 09:16:00
3:35 AM,8.6,5.0,85,29.97,4.0,SW,9.2,-,N/A,Snow,Light Snow,220,2012-12-29 09:35:00
3:55 AM,6.8,3.2,85,29.97,7.0,SSW,9.2,-,N/A,Snow,Light Snow,200,2012-12-29 09:55:00
4:16 AM,6.8,3.2,85,29.97,5.0,SSW,9.2,-,N/A,Snow,Light Snow,210,2012-12-29 10:16:00
4:35 AM,6.8,3.2,85,29.96,5.0,SSW,9.2,-,N/A,Snow,Light Snow,210,2012-12-29 10:35:00
4:55 AM,5.0,1.4,85,29.96,5.0,SSW,8.1,-,N/A,Snow,Light Snow,210,2012-12-29 10:55:00
5:15 AM,5.0,1.4,85,29.97,7.0,SSW,9.2,-,N/A,Snow,Light Snow,210,2012-12-29 11:15:00
5:35 AM,3.2,1.4,92,29.97,2.5,SSW,8.1,-,N/A,Snow,Light Snow,210,2012-12-29 11:35:00
5:55 AM,1.4,-2.2,85,29.97,7.0,SW,9.2,-,N/A,Snow,Light Snow,220,2012-12-29 11:55:00
6:15 AM,-2.2,-5.8,85,29.97,10.0,SSW,5.8,-,N/A,,Scattered Clouds,210,2012-12-29 12:15:00
6:35 AM,-4.0,-7.6,85,29.98,7.0,SSW,5.8,-,N/A,,Scattered Clouds,210,2012-12-29 12:35:00
6:55 AM,-5.8,-9.4,84,29.98,10.0,SSW,4.6,-,N/A,,Clear,200,2012-12-29 12:55:00
7:15 AM,-7.6,-11.2,84,29.99,10.0,Calm,Calm,-,N/A,,Clear,0,2012-12-29 13:15:00
7:35 AM,-7.6,-11.2,84,29.99,10.0,Calm,Calm,-,N/A,,Clear,0,2012-12-29 13:35:00
7:55 AM,-9.4,-14.8,77,29.99,10.0,South,5.8,-,N/A,,Clear,180,2012-12-29 13:55:00
8:15 AM,-11.2,-14.8,84,30.00,10.0,South,5.8,-,N/A,,Clear,180,2012-12-29 14:15:00
8:35 AM,-11.2,-16.6,77,30.01,10.0,South,4.6,-,N/A,,Scattered Clouds,190,2012-12-29 14:35:00
8:55 AM,-7.6,-9.4,92,30.01,7.0,SSW,3.5,-,N/A,Snow,Light Snow,200,2012-12-29 14:55:00
9:15 AM,-5.8,-9.4,84,30.01,5.0,SSW,4.6,-,N/A,Snow,Light Snow,210,2012-12-29 15:15:00
9:35 AM,-5.8,-7.6,92,30.02,4.0,SSW,6.9,-,N/A,Snow,Light Snow,210,2012-12-29 15:35:00
9:55 AM,-4.0,-7.6,85,30.02,3.0,SSW,5.8,-,N/A,Snow,Light Snow,200,2012-12-29 15:55:00
10:15 AM,-2.2,-7.6,78,30.02,3.0,SSW,5.8,-,N/A,Snow,Light Snow,200,2012-12-29 16:15:00
10:35 AM,-2.2,-5.8,85,30.03,3.0,SSW,5.8,-,N/A,Snow,Light Snow,210,2012-12-29 16:35:00
10:55 AM,-0.4,-5.8,78,30.03,3.0,SSW,5.8,-,N/A,Snow,Light Snow,210,2012-12-29 16:55:00
11:16 AM,-0.4,-5.8,78,30.03,5.0,SSW,6.9,-,N/A,Snow,Light Snow,200,2012-12-29 17:16:00
11:35 AM,-0.4,-5.8,78,30.02,4.0,SSW,6.9,-,N/A,Snow,Light Snow,210,2012-12-29 17:35:00
11:55 AM,-0.4,-4.0,85,30.02,3.0,SSW,6.9,-,N/A,Snow,Light Snow,200,2012-12-29 17:55:00
12:16 PM,1.4,-2.2,85,30.02,7.0,SSW,5.8,-,N/A,Snow,Light Snow,210,2012-12-29 18:16:00
12:35 PM,3.2,-4.0,72,30.01,3.0,SSW,6.9,-,N/A,Snow,Light Snow,210,2012-12-29 18:35:00
12:55 PM,3.2,-2.2,78,30.01,5.0,SW,6.9,-,N/A,Snow,Light Snow,220,2012-12-29 18:55:00
1:15 PM,3.2,-2.2,78,30.01,3.0,SW,6.9,-,N/A,Snow,Light Snow,220,2012-12-29 19:15:00
1:35 PM,3.2,-4.0,72,30.01,10.0,SSW,5.8,-,N/A,Snow,Light Snow,200,2012-12-29 19:35:00
1:55 PM,3.2,-5.8,66,30.01,10.0,SSW,6.9,-,N/A,,Clear,200,2012-12-29 19:55:00
2:15 PM,3.2,-5.8,66,30.02,10.0,SSW,8.1,-,N/A,,Clear,200,2012-12-29 20:15:00
2:35 PM,3.2,-5.8,66,30.01,10.0,SSW,6.9,-,N/A,,Clear,200,2012-12-29 20:35:00
2:55 PM,3.2,-5.8,66,30.01,10.0,SSW,5.8,-,N/A,,Clear,200,2012-12-29 20:55:00
3:15 PM,3.2,-5.8,66,30.02,10.0,SSW,5.8,-,N/A,,Clear,200,2012-12-29 21:15:00
3:35 PM,1.4,-5.8,72,30.03,10.0,SSW,5.8,-,N/A,,Clear,200,2012-12-29 21:35:00
3:55 PM,-0.4,-7.6,72,30.04,10.0,SSW,6.9,-,N/A,,Clear,210,2012-12-29 21:55:00
4:15 PM,-0.4,-7.6,72,30.04,10.0,SSW,8.1,-,N/A,,Clear,200,2012-12-29 22:15:00
4:35 PM,-4.0,-9.4,78,30.04,10.0,South,6.9,-,N/A,,Clear,190,2012-12-29 22:35:00
5:15 PM,-7.6,-11.2,84,30.05,10.0,South,4.6,-,N/A,,Clear,190,2012-12-29 23:15:00
5:35 PM,-7.6,-11.2,84,30.05,10.0,South,4.6,-,N/A,,Clear,190,2012-12-29 23:35:00
5:55 PM,-7.6,-11.2,84,30.04,10.0,South,5.8,-,N/A,,Clear,180,2012-12-29 23:55:00
6:15 PM,-9.4,-13.0,84,30.05,10.0,SSW,5.8,-,N/A,,Clear,200,2012-12-30 00:15:00
6:35 PM,-9.4,-13.0,84,30.06,10.0,Calm,Calm,-,N/A,,Clear,0,2012-12-30 00:35:00
6:55 PM,-9.4,-13.0,84,30.05,10.0,South,4.6,-,N/A,,Clear,180,2012-12-30 00:55:00
7:15 PM,-9.4,-11.2,92,30.05,10.0,South,6.9,-,N/A,,Clear,180,2012-12-30 01:15:00
7:35 PM,-9.4,-13.0,84,30.05,10.0,South,6.9,-,N/A,,Clear,180,2012-12-30 01:35:00
7:55 PM,-9.4,-13.0,84,30.05,10.0,South,6.9,-,N/A,,Clear,170,2012-12-30 01:55:00
8:15 PM,-9.4,-11.2,92,30.05,10.0,South,6.9,-,N/A,Snow,Light Snow,170,2012-12-30 02:15:00
8:35 PM,-9.4,-11.2,92,30.05,10.0,South,6.9,-,N/A,Snow,Light Snow,170,2012-12-30 02:35:00
8:55 PM,-7.6,-11.2,84,30.05,7.0,South,6.9,-,N/A,Snow,Light Snow,170,2012-12-30 02:55:00
9:15 PM,-7.6,-9.4,92,30.04,10.0,SSE,5.8,-,N/A,Snow,Light Snow,160,2012-12-30 03:15:00
9:35 PM,-5.8,-9.4,84,30.04,10.0,South,6.9,-,N/A,,Mostly Cloudy,170,2012-12-30 03:35:00
9:55 PM,-4.0,-7.6,85,30.05,10.0,South,5.8,-,N/A,,Overcast,180,2012-12-30 03:55:00
10:15 PM,-4.0,-7.6,85,30.05,10.0,South,5.8,-,N/A,,Overcast,170,2012-12-30 04:15:00
10:35 PM,-5.8,-9.4,84,30.05,10.0,South,8.1,-,N/A,Snow,Light Snow,180,2012-12-30 04:35:00
10:55 PM,-5.8,-9.4,84,30.05,10.0,South,6.9,-,N/A,,Clear,170,2012-12-30 04:55:00
11:15 PM,-5.8,-9.4,84,30.05,10.0,South,8.1,-,N/A,,Clear,170,2012-12-30 05:15:00
11:35 PM,-5.8,-9.4,84,30.05,10.0,SSE,5.8,-,N/A,,Clear,160,2012-12-30 05:35:00
11:55 PM,-5.8,-9.4,84,30.05,10.0,South,6.9,-,N/A,,Scattered Clouds,180,2012-12-30 05:55:00